Theta_e
284 280 276 278 279 279 278 276 274 276 280 278 278 276 276 277 279 278 278 279 280 281 283 285 286 286 286 287 289 292 292 293 296 295 296 296 296 298 299 302 304 305 307 310
279 277 281 283 282 280 278 276 273 277 281 278 276 275 275 278 277 278 278 278 277 279 282 284 284 284 284 285 287 289 291 292 294 295 295 296 296 297 298 300 302 304 305 307
277 279 285 283 280 279 276 276 276 276 279 279 278 274 278 280 281 282 281 279 280 279 280 282 283 282 283 283 285 288 289 291 292 294 295 295 297 296 296 297 298 301 304 305
279 283 282 279 279 279 274 280 279 279 275 270 276 265 276 279 277 279 279 278 278 280 281 281 282 282 282 283 285 287 288 289 292 293 293 292 294 292 294 296 297 299 302 303
278 279 279 278 279 281 277 281 278 279 275 273 273 268 270 276 275 276 276 279 277 277 279 280 281 281 282 283 284 285 287 288 290 292 292 292 293 295 294 295 296 297 299 301
280 283 281 280 282 282 282 278 277 275 272 264 272 270 265 270 275 276 278 278 279 278 279 281 282 283 282 282 283 284 286 287 289 291 291 291 292 294 295 294 294 296 297 298
279 279 281 284 278 281 278 272 267 267 264 263 272 268 268 276 279 278 278 276 277 277 279 280 280 281 282 282 282 285 286 287 288 290 290 291 291 294 295 295 294 295 295 295
274 274 279 283 279 276 275 273 265 262 259 262 273 262 268 279 281 282 280 279 279 277 279 279 281 281 281 283 283 284 285 286 288 289 289 290 291 293 295 296 296 295 295 295
274 276 281 284 284 280 276 271 276 271 272 267 263 267 273 281 281 281 280 280 277 277 279 280 280 282 282 282 283 283 285 286 288 288 288 289 291 292 293 295 296 296 296 296
279 274 282 282 283 282 279 279 270 269 259 257 258 262 265 275 277 279 278 277 278 279 279 281 281 281 283 283 283 283 285 285 287 287 287 288 289 291 292 294 294 296 296 297
280 276 277 282 278 275 275 274 274 273 270 260 254 261 269 275 278 277 278 280 278 278 279 280 280 282 282 282 282 283 284 286 286 286 287 287 288 291 292 293 294 296 296 296
281 277 273 277 281 283 279 277 276 268 269 270 264 263 278 278 279 279 279 280 280 280 280 280 281 282 282 282 283 283 284 285 286 286 287 287 289 290 291 292 293 296 295 296
280 275 272 275 276 279 277 279 278 276 272 262 263 265 279 280 280 280 279 280 281 281 282 282 281 282 283 282 283 283 284 284 286 287 287 287 288 289 290 292 293 295 295 296
284 277 276 271 274 277 275 278 278 274 267 263 269 272 275 277 272 277 279 280 280 281 282 281 282 282 283 283 284 284 284 286 286 287 287 287 287 289 290 291 294 294 295 296
281 276 278 279 281 281 278 279 278 271 268 269 271 269 273 271 271 272 277 280 280 282 282 283 283 283 282 282 283 284 285 286 286 286 286 286 287 289 290 291 293 294 294 295
281 276 278 277 281 277 278 279 278 277 271 270 268 272 277 278 278 276 278 279 280 281 283 284 284 283 282 283 283 285 284 285 285 285 285 287 288 289 290 293 294 293 294 294
279 277 277 275 278 276 272 278 278 277 277 272 269 273 276 277 279 273 274 280 279 281 282 284 283 282 282 283 284 283 284 285 284 285 286 287 288 288 290 293 292 290 292 293
280 279 278 275 276 265 279 283 281 277 279 276 275 271 273 275 278 278 281 280 281 282 284 283 281 281 282 283 283 283 284 284 283 284 285 286 287 288 291 292 290 290 291 291
284 280 275 269 272 277 281 280 277 275 276 279 277 278 280 280 279 278 284 283 281 280 282 281 281 282 282 282 283 283 282 283 283 283 284 285 287 287 288 291 287 288 287 287
285 282 276 275 271 266 278 280 282 280 270 281 280 278 277 278 269 273 282 282 281 282 282 282 282 282 281 281 282 281 281 282 281 283 284 285 286 286 287 291 289 286 286 286
278 278 274 274 269 274 283 282 283 273 276 281 281 280 279 275 277 280 282 281 282 282 282 282 282 281 281 281 281 280 280 280 282 283 284 285 286 286 288 288 286 285 283 284
278 275 273 275 270 268 283 281 277 281 281 283 282 281 281 281 282 282 281 280 281 280 281 281 280 281 281 281 281 279 279 281 282 283 283 284 284 286 288 285 284 283 282 280
279 281 278 278 278 284 283 284 284 284 283 283 283 283 283 282 281 281 280 280 280 280 279 280 279 280 280 280 280 279 280 282 282 282 282 283 284 285 287 283 282 281 280 279
286 287 282 282 284 286 284 285 285 286 285 285 285 284 283 281 281 280 280 279 279 278 278 279 279 278 278 279 281 280 281 281 281 281 281 282 282 284 285 283 282 280 279 278
285 285 282 281 285 287 288 288 287 287 286 285 285 284 283 282 281 280 280 280 279 278 279 278 278 277 278 279 279 280 281 281 280 281 281 281 282 281 283 283 282 281 281 280
285 283 281 281 287 285 285 286 287 287 286 286 284 284 284 283 282 281 280 280 279 279 279 277 277 278 278 279 279 280 281 281 280 280 279 280 281 280 280 282 282 285 284 284
Wind_Speed
13 14 20 14 10 6 8 7 7 8 8 6 9 6 3 3 8 8 6 6 6 6 5 5 7 7 8 8 9 12 13 13 10 11 11 11 11 10 10 9 12 13 13 14
8 18 9 8 10 8 8 7 4 11 11 11 7 6 2 3 2 5 4 2 2 4 5 6 7 8 8 7 8 9 11 12 9 9 8 6 8 9 9 9 11 12 13 14
10 3 7 7 10 7 2 10 11 6 11 8 7 5 4 2 3 4 2 0 2 2 4 6 7 7 6 7 7 8 8 11 10 10 7 8 7 8 9 11 11 12 13 13
8 4 6 5 9 5 5 8 8 6 4 2 2 5 5 2 1 1 2 3 4 5 6 6 6 6 6 6 7 8 7 9 10 9 9 10 9 8 8 8 9 10 12 13
1 3 3 4 2 4 4 7 5 3 4 4 3 3 7 2 4 4 3 2 4 3 5 6 7 6 5 7 6 6 7 8 9 7 9 6 9 8 5 7 11 10 11 12
4 3 1 2 0 6 7 6 5 5 3 4 4 3 7 4 5 4 3 1 3 4 4 5 4 6 5 5 6 6 7 7 8 7 8 9 9 12 10 10 9 9 9 9
2 2 2 1 3 6 8 5 3 6 7 6 3 2 11 6 7 5 5 2 2 2 4 4 5 5 6 6 5 5 6 7 7 7 7 9 8 10 12 11 9 11 9 9
4 4 4 3 3 2 4 5 6 4 3 8 6 6 9 8 7 6 1 4 2 1 1 3 3 3 4 5 5 5 6 6 6 6 7 7 8 6 7 8 8 7 8 9
4 4 1 1 2 5 4 4 4 2 3 2 4 8 9 6 8 6 4 1 2 1 3 4 4 3 4 5 6 5 5 6 6 6 6 6 7 8 7 9 9 5 9 10
1 4 3 3 3 3 5 4 4 3 2 6 7 7 7 5 7 5 7 6 6 5 4 5 4 4 4 5 5 6 6 4 4 6 6 5 6 7 8 6 9 8 9 10
3 3 4 4 4 6 2 0 2 4 5 4 4 10 9 7 6 7 8 7 5 6 6 5 4 5 6 5 5 5 6 3 5 6 6 6 6 7 7 5 7 9 10 10
1 3 4 4 2 3 3 6 5 5 4 4 4 11 5 9 8 8 8 6 7 6 6 5 5 6 6 5 6 5 2 4 4 5 6 6 6 6 6 7 7 9 9 10
3 1 4 2 4 4 5 5 5 3 4 6 3 11 5 6 6 6 7 7 6 6 7 6 6 6 5 6 5 3 3 4 5 5 6 6 7 7 6 6 8 11 10 10
4 3 6 7 8 3 5 5 6 6 3 5 10 15 11 10 7 7 7 8 7 7 7 5 6 6 6 3 3 3 5 5 5 5 5 6 7 7 6 5 9 10 10 10
4 4 4 8 14 11 10 14 9 9 8 7 11 9 11 8 8 8 8 6 6 7 6 5 6 6 3 2 4 5 4 4 4 5 5 6 6 6 6 5 8 8 9 9
3 4 3 8 11 7 10 10 10 11 4 9 2 13 8 6 4 4 7 5 7 7 6 7 6 2 1 5 5 4 3 4 4 5 5 6 6 6 6 8 6 8 8 9
6 3 3 6 3 6 7 10 7 5 5 7 4 12 3 4 5 5 5 5 8 7 7 6 3 3 3 6 5 4 2 3 5 5 6 6 6 6 7 6 7 9 9 8
5 3 2 5 7 4 7 4 6 9 6 8 4 5 6 7 7 5 7 6 7 6 6 4 4 1 6 5 4 3 1 4 5 6 6 7 6 5 4 6 4 6 7 8
5 4 2 1 2 11 6 3 5 7 9 7 9 4 5 6 2 5 6 4 3 3 4 4 4 4 6 6 3 3 2 4 4 5 6 7 5 5 6 5 5 3 4 5
5 4 5 1 2 6 6 3 4 4 6 6 7 8 6 4 1 6 4 2 4 4 3 5 4 5 6 4 3 3 4 4 3 5 6 6 5 5 5 5 6 5 4 5
3 3 7 3 5 11 10 7 4 3 8 6 7 7 7 5 7 5 4 4 4 3 6 5 6 7 6 5 3 2 3 2 3 5 6 5 4 4 4 5 5 5 5 5
9 7 5 3 2 12 7 5 7 9 4 8 7 6 7 6 5 6 6 6 5 6 6 6 6 5 3 3 2 4 4 2 4 5 6 5 4 4 5 6 5 5 5 5
4 9 7 11 11 7 14 9 11 7 7 7 8 7 9 9 7 8 6 7 6 7 6 5 6 5 2 1 5 6 1 4 5 6 6 4 4 5 5 5 4 4 4 4
5 4 5 0 6 9 12 14 4 9 9 8 8 8 9 9 9 7 7 6 6 6 6 5 5 3 3 4 6 5 3 4 4 4 5 5 4 5 4 3 3 3 3 3
7 1 4 8 12 9 8 9 8 10 10 6 7 8 11 9 8 7 7 7 6 6 5 5 5 6 4 5 5 5 3 3 2 3 3 4 3 4 3 2 3 3 1 2
8 9 8 10 9 5 5 6 5 6 9 10 12 8 7 9 10 8 7 7 7 7 6 6 6 6 5 7 5 4 3 2 3 1 1 2 2 1 2 3 3 5 6 7
Wind_Direction
28 52 44 33 31 80 74 35 345 308 280 50 132 119 108 68 68 58 44 42 30 19 330 14 15 29 25 23 26 17 8 359 357 354 355 355 3 350 2 356 350 352 357 349
29 50 31 48 34 55 55 13 307 291 349 100 108 61 15 81 101 131 121 86 62 27 9 8 18 32 21 23 15 16 7 358 350 355 345 345 348 348 1 351 351 353 357 349
83 62 40 51 30 25 33 16 338 305 96 83 85 352 342 254 144 148 101 301 351 39 16 7 17 24 24 23 13 17 352 354 352 347 336 347 350 352 360 357 354 348 354 351
84 21 61 45 43 12 10 331 335 326 76 68 130 274 265 288 350 26 25 35 15 15 7 3 5 16 17 4 22 11 347 345 357 338 356 347 351 353 355 349 340 343 352 354
209 59 59 49 24 5 292 333 292 58 74 109 331 64 270 271 264 309 342 54 32 50 33 22 12 7 357 5 10 354 345 346 347 343 359 343 352 340 337 347 343 345 353 350
102 177 83 166 353 65 303 354 23 38 80 36 265 126 276 223 215 266 280 350 61 60 46 44 29 24 2 353 359 342 347 336 345 346 350 347 348 348 341 348 350 350 351 345
168 214 255 155 50 15 28 43 350 6 8 233 288 37 242 247 244 245 261 173 128 74 43 29 25 4 345 354 339 323 348 333 344 349 356 345 340 351 342 341 349 353 345 343
28 324 205 178 124 221 53 92 130 251 267 268 306 236 262 226 247 267 359 166 153 84 10 18 358 342 323 331 346 328 333 328 350 353 350 338 333 343 340 339 345 346 340 337
32 284 72 138 114 120 345 26 177 185 271 308 262 293 312 241 257 251 259 6 259 335 340 329 322 319 322 331 320 319 319 327 360 348 353 340 323 335 330 338 342 340 335 334
201 300 204 176 123 5 132 198 23 19 343 296 294 286 240 235 245 297 317 295 286 260 303 303 315 307 314 306 316 326 336 344 341 347 343 337 320 321 326 329 342 340 336 332
49 104 286 125 190 184 1 31 72 168 144 190 295 268 219 217 212 240 248 255 276 257 268 298 291 303 305 307 322 317 6 15 355 340 333 330 325 323 322 326 335 340 338 337
1 155 271 257 308 160 200 202 153 127 255 213 163 271 245 201 223 241 260 291 286 287 293 295 293 301 324 312 307 342 29 9 341 334 339 327 322 328 333 326 336 342 343 339
159 231 311 264 334 325 249 228 194 148 81 216 149 264 224 218 244 271 265 261 283 283 293 302 309 311 319 289 330 47 35 357 359 359 346 342 337 326 333 339 337 347 343 341
114 182 190 205 222 184 267 234 194 156 148 218 227 273 270 258 282 277 260 252 258 265 272 278 301 303 303 295 53 61 39 22 3 358 350 348 333 322 329 350 344 351 343 346
127 243 214 249 257 256 253 272 248 199 205 180 262 228 261 246 238 237 241 251 252 258 276 292 286 295 274 69 80 73 49 22 356 348 342 327 315 320 332 354 346 355 356 357
178 271 259 280 276 275 274 260 239 236 201 259 250 279 210 243 215 240 267 274 261 269 265 269 272 217 40 110 110 94 48 2 350 345 331 313 320 335 347 356 9 0 15 13
164 199 344 268 302 294 310 252 206 224 201 169 205 241 255 250 273 257 266 262 253 256 244 257 245 200 108 126 136 114 44 347 344 342 321 333 325 338 9 355 29 28 27 24
163 143 158 284 344 350 238 226 197 194 229 214 270 248 210 226 237 242 226 233 262 270 260 182 174 165 133 134 143 125 25 334 338 335 332 340 337 342 18 4 19 30 30 20
167 116 292 252 230 282 297 186 174 166 273 215 226 248 227 245 302 287 229 244 220 175 175 190 201 143 135 146 156 95 334 315 338 342 339 340 344 356 19 18 350 357 43 29
114 101 133 35 310 256 236 188 131 112 290 213 173 192 210 122 22 260 256 145 113 145 176 183 137 128 128 158 120 59 360 27 13 341 330 337 347 11 29 25 4 11 15 22
156 204 202 180 248 280 247 164 162 89 248 179 176 188 181 180 199 210 153 127 149 135 125 115 123 144 157 164 129 32 22 58 316 347 336 338 347 21 57 50 35 29 22 31
175 162 201 171 210 279 153 89 172 211 178 172 192 198 182 194 177 174 151 150 135 120 116 125 123 145 163 163 127 79 76 351 23 2 341 330 8 36 67 73 42 28 27 28
224 193 182 181 217 224 195 200 212 171 164 199 184 184 172 164 175 173 167 159 149 140 130 130 135 151 180 62 110 109 117 47 24 4 345 2 25 81 85 84 66 52 38 31
261 173 226 200 249 218 210 236 222 195 201 191 183 173 165 169 171 169 164 160 156 153 151 156 147 137 119 103 119 125 101 57 35 19 358 353 49 97 106 102 95 88 64 50
208 201 211 264 285 285 259 229 226 219 213 188 174 170 175 160 177 168 172 164 167 162 168 165 156 153 176 137 133 129 113 60 54 46 4 11 44 95 127 165 161 135 139 129
184 199 173 225 220 196 230 202 187 191 201 187 168 170 178 168 169 167 171 170 168 172 173 167 175 171 167 150 153 150 140 98 123 44 328 327 343 342 135 188 217 223 138 118